Location: T�bingen+AIT
(48.5342°N, 9.0700°E)
Time: 16:10:21
(UTC+02:00)

Daily predictions for brighter satellites

Satellite Brightness Start Highest point End
(mag) Time Altitude Azimuth Time Altitude Azimuth Time Altitude Azimuth
Cosmos 1727 Rocket 4.1 22:03:13 10° S 22:09:32 85° E 22:15:55 10° N
Cosmos 407 Rocket 4.1 22:05:46 10° SW 22:10:50 62° WNW 22:15:57 10° NNE
Cosmos 2333 Rocket 3.8 22:09:21 10° NW 22:14:13 30° WSW 22:19:03 10° SSW
In-Cosmos 22 4.3 22:10:01 10° S 22:15:43 81° E 22:21:30 10° NNE
CZ-3B DEB 4.1 22:05:42 10° WSW 22:15:51 86° NNW 22:29:16 10° ENE
USA 234 3.4 22:10:41 10° ENE 22:17:03 51° SE 22:23:22 10° SSW
Terra 3.1 22:13:53 10° ESE 22:17:56 28° ENE 22:21:59 10° N
ARGOS 3.2 22:13:02 10° SSE 22:18:28 80° ENE 22:23:55 10° NNW
Cosmos 1726 3.4 22:15:20 10° NNE 22:18:29 26° ENE 22:21:37 10° SE
Cosmos 1908 3.3 22:14:47 10° N 22:18:41 64° ENE 22:22:31 10° SSE
H-2A R/B 3.7 22:16:00 10° ESE 22:19:20 22° ENE 22:22:39 10° NNE
Cosmos 1023 Rocket 4.4 22:14:43 10° SSW 22:19:52 79° ESE 22:25:00 10° NNE
Cosmos 2219 Rocket 4.3 22:16:40 10° NW 22:20:57 22° W 22:25:14 10° SSW
Cosmos 1954 Rocket 4.1 22:17:54 10° SSW 22:23:06 84° WNW 22:28:19 10° NNE
ERBS 4.1 22:22:14 10° NW 22:25:14 28° NNE 22:28:14 10° E
Cosmos 1850 Rocket 4.2 22:20:44 10° S 22:25:44 52° ESE 22:30:47 10° NNE
MetOp-A 4.4 22:20:28 10° S 22:25:48 72° WSW 22:31:12 10° NNW
YAOGAN 6 4.5 22:22:55 10° SSW 22:26:05 28° W 22:29:18 10° NW
H-2A R/B 2.3 22:21:06 10° SSE 22:26:19 63° ENE 22:31:41 10° N
Meteor 1-21 Rocket 4.4 22:24:09 10° S 22:29:41 55° E 22:35:10 10° NNE
Cosmos 1818 3.7 22:24:51 10° NW 22:30:20 80° SW 22:35:40 10° SSE
Cosmos 468 Rocket 4.5 22:27:00 10° NNW 22:32:00 48° ENE 22:36:47 11° SE
Cosmos 1674 2.7 22:28:32 10° S 22:32:15 59° E 22:35:58 10° NNE
BREEZE-M DEB (TANK) 1.7 22:31:02 10° WSW 22:33:07 75° SSE 22:37:57 10° ENE
RESURS DK-1 3.3 22:30:32 10° NNW 22:34:28 38° NE 22:38:19 10° ESE
KORONAS-FOTON 4.3 22:31:34 10° SSE 22:35:11 43° E 22:38:48 10° NNE
Cosmos 2016 Rocket 4.1 22:31:09 10° N 22:37:27 67° ENE 22:43:37 10° SSE
Cosmos 614 Rocket 4.1 22:37:42 10° SSW 22:42:55 83° WNW 22:48:09 10° NNE
Cosmos 2082 4.3 22:41:27 10° SW 22:46:59 60° WNW 22:52:36 10° NNE
ERS-1 Rocket 4.3 22:43:54 10° SSW 22:48:31 36° W 22:53:11 10° NNW
Cosmos 1741 Rocket 4.0 22:43:16 10° SSW 22:48:36 78° ESE 22:53:55 10° NNE
Cosmos 2084 3.8 22:47:23 10° S 22:51:01 34° ESE 22:54:31 10° ENE
Cosmos 2297 Rocket 3.0 22:50:21 10° SW 22:55:54 56° WNW 23:01:30 10° NNE
IGS 5A 3.8 22:53:37 15° SSE 22:56:58 54° ENE 23:01:03 10° N
SPOT 5 3.6 22:54:04 10° S 22:58:42 50° W 23:03:37 10° NNW
Lacrosse 5 1.9 22:56:08 10° NW 23:01:14 81° NE 23:05:47 13° ESE
SL-08 RB Rocket 4.4 22:58:06 10° S 23:02:29 49° W 23:06:59 10° NNW
Cosmos 2233 Rocket 4.4 22:58:01 10° N 23:04:04 49° ENE 23:08:57 15° SE
Cosmos 1408 Rocket 3.5 23:01:02 10° S 23:05:20 86° E 23:09:42 10° N
SL-14 R/B 3.6 23:06:03 16° SSE 23:09:00 49° E 23:12:51 10° NNE
Cosmos 1328 4.1 23:06:28 16° SSE 23:09:26 49° E 23:13:22 10° NNE
CZ-3A R/B 1.8 23:09:03 10° N 23:09:31 11° NNE 23:10:02 10° NE
CZ-4B R/B 4.5 23:07:09 10° NNE 23:11:52 32° E 23:15:06 17° SSE
Cosmos 2263 Rocket 3.6 23:09:20 15° SE 23:11:54 21° E 23:15:55 10° NE
Lacrosse 4 Rocket 3.8 23:15:12 10° WSW 23:18:55 28° NW 23:22:44 10° NNE
SPOT 1/Viking Rocket 4.4 23:16:13 10° S 23:21:06 44° W 23:26:03 10° NNW
Cosmos 1500 Rocket 3.9 23:21:00 19° SSE 23:23:59 50° E 23:28:19 10° NNE
Cosmos 1603 3.8 23:18:57 10° NNW 23:24:38 71° WSW 23:28:48 18° SSE
ATLAS 5 CENTAUR R/B 1.9 23:20:08 10° SW 23:24:52 85° NW 23:30:08 10° NE
Cosmos 371 Rocket 3.3 23:20:14 10° NNW 23:25:05 87° ENE 23:28:24 20° SSE
SME Rocket 3.8 23:22:41 18° SE 23:25:10 41° ENE 23:29:27 10° N
Tiangong 1 2.7 23:24:27 10° SW 23:25:30 17° SSW 23:25:30 17° SSW
Cosmos 1814 Rocket 4.1 23:21:41 10° NNW 23:27:05 86° WSW 23:30:53 20° SSE
Cosmos 1486 Rocket 4.5 23:28:15 19° SSE 23:31:42 43° ESE 23:36:41 10° NE
Cosmos 1300 3.1 23:27:59 10° NNW 23:31:46 58° W 23:34:24 18° S
Cosmos 2123 Rocket 4.0 23:26:16 10° S 23:32:28 85° W 23:38:43 10° N
CARTOSAT-1 3.9 23:30:14 18° S 23:33:23 60° WSW 23:37:41 10° NNW
Cosmos 2228 Rocket 3.4 23:29:00 10° NNW 23:33:35 68° W 23:36:55 18° S
Cosmos 1356 4.0 23:35:16 27° SSE 23:36:44 43° E 23:40:05 10° NNE
CZ-4 R/B 4.0 23:32:43 10° NNE 23:37:36 61° ESE 23:40:53 20° S
CZ-4C R/B 3.8 23:36:31 23° SE 23:39:00 59° ENE 23:43:18 10° N
Cosmos 2227 Rocket 4.5 23:34:43 10° W 23:39:24 26° NW 23:44:07 10° NNE
Cosmos 1867 3.6 23:34:41 10° SW 23:40:08 86° NW 23:45:39 10° NE
Meteor 2-10 4.5 23:34:55 10° NNW 23:40:23 64° W 23:44:44 17° S
SL-16 R/B 4.1 23:37:22 10° NW 23:41:28 21° W 23:45:33 10° SSW
Cosmos 1943 3.2 23:38:40 10° NNW 23:44:21 87° ENE 23:48:07 22° SSE
Abrixas rocket 2.1 23:41:20 10° W 23:44:34 65° SSW 23:46:06 28° ESE
Cosmos 841 Rocket 3.5 23:39:46 10° NNW 23:45:05 85° ENE 23:48:24 23° SSE
Cosmos 2058 3.0 23:44:06 24° S 23:46:27 62° E 23:50:37 10° NNE
Cosmos 1328 Rocket 4.4 23:42:19 10° NNW 23:46:29 45° W 23:49:35 16° SSW
Cosmos 1515 Rocket 3.9 23:43:03 10° NNW 23:47:21 60° W 23:50:09 21° S
Cosmos 1626 2.4 23:48:09 29° SSE 23:49:46 53° E 23:53:26 10° NNE
Cosmos 2151 2.9 23:47:13 23° S 23:49:51 77° E 23:54:10 10° NNE
Cosmos 1763 Rocket 3.5 23:45:30 10° NNW 23:50:38 70° WSW 23:53:45 23° S
SL-24 R/B 4.4 23:48:19 25° SSE 23:50:40 87° ENE 23:54:50 10° NNW
Meteor 2-12 Rocket 4.4 23:44:44 10° N 23:50:52 87° E 23:55:00 22° S
Cosmos 1726 4.0 23:50:42 10° NW 23:53:44 24° W 23:56:25 12° SW
H-2A R/B 2.8 23:52:18 19° SSW 23:55:07 45° W 23:59:14 10° NNW
Cosmos 1743 Rocket 4.0 23:51:57 15° SSW 23:55:27 59° WNW 23:59:45 10° N
